Weather Roundup
Issued by NWS

Home | Current Version | Previous Version | Graphics & Text | Print | Product List | Glossary Off
Versions: 1 2 3 4 5 6 7 8 9 10 11 12 13 14 15 16 17 18 19 20 21 22 23 24 25 26 27 28 29 30 31 32 33 34 35 36 37 38 39 40 41 42 43 44 45 46 47 48 49 50

000
NZUS93 KARX 232010
HRRWXR

CURRENT HOURLY OBSERVATIONS ACROSS
MUCH OF THE UPPER MISSISSIPPI VALLEY
NATIONAL WEATHER SERVICE LA CROSSE WI
200 PM CST MON JAN 23 2017


...SOUTHEAST MINNESOTA...


CITY           SKY/WX    TMP DP  RH WIND       PRES   REMARKS
ROCHESTER      CLOUDY    33  31  92 W13       29.80F WCI  24
ROCHESTER/MAYO CLOUDY    35  32  90 W12       29.80F WCI  26
WINONA         LGT RAIN  36  34  93 W5        29.82S WCI  32
AUSTIN         CLOUDY    32  28  86 NW8       29.81F WCI  25
ALBERT LEA     CLOUDY    34  28  80 NW3       29.81S
DODGE CENTER   PTSUNNY   30  30 100 CALM      29.80F
PRESTON        CLOUDY    33  30  90 W8        29.80F FOG     WCI  26
OWATONNA       CLOUDY    32  28  86 W3        29.81F
FARIBAULT      NOT AVBL
$$

...ELSEWHERE IN MINNESOTA...


CITY           SKY/WX    TMP DP  RH WIND       PRES   REMARKS
MINNEAPOLIS    CLOUDY    34  28  79 W3        29.82F
INTNL FALLS    CLOUDY    33  30  88 SW5       29.74F WCI  29
DULUTH         CLOUDY    36  32  85 W9        29.75R WCI  29
RED WING       CLOUDY    36  32  87 NW7       29.82S WCI  30
REDWOOD FALLS  CLOUDY    33  28  81 W8        29.82F WCI  26
MANKATO        CLOUDY    33  29  85 NW8       29.82F WCI  26
WORTHINGTON    NOT AVBL
FAIRMONT       MIX PCPN  32  30  92 NW8       29.83S WCI  25
$$

...SOUTHWEST WISCONSIN...


CITY           SKY/WX    TMP DP  RH WIND       PRES   REMARKS
LA CROSSE      CLOUDY    39  34  82 CALM      29.81S
PRAIRIE DU CHI CLOUDY    38  33  82 NW5       29.81S WCI  34
BOSCOBEL       CLOUDY    40  33  76 W5        29.81S
LONE ROCK      CLOUDY    41  33  73 W7        29.78F
PLATTEVILLE    CLOUDY    38  37  98 W6        29.79S WCI  33
FORT MC COY    CLOUDY    35  34  96 SW6       29.80S WCI  30
CAMP DOUGLAS   CLOUDY    37  37 100 W8        29.77S WCI  31
MAUSTON-NEW LI CLOUDY    37  35  92 NW6       29.77S WCI  33
VIROQUA        CLOUDY    34  34 100 W6        29.78F WCI  29
WIS DELLS      CLOUDY    37  35  91 NW3       29.76S
$$

...ELSEWHERE IN WISCONSIN...


CITY           SKY/WX    TMP DP  RH WIND       PRES   REMARKS
MILWAUKEE      CLOUDY    43  36  76 NW7       29.73F
MADISON        CLOUDY    39  35  86 NW8       29.77S WCI  33
GREEN BAY      CLOUDY    39  36  89 NW6       29.75F WCI  35
EAU CLAIRE     CLOUDY    35  33  92 W9        29.79R FOG     WCI  28
BLACK RVR FLS  CLOUDY    36  36 100 W6        29.79S WCI  32
MEDFORD        FOG       33  33  99 NW5       29.74F VSB 1   WCI  29
WAUSAU         CLOUDY    35  33  92 W6        29.74F WCI  30
WIS RAPIDS     CLOUDY    37  35  92 N3        29.76F
MARSHFIELD     FOG       34  33  96 NW6       29.74F VSB 1/4 WCI  29
RICE LAKE      CLOUDY    35  35 100 W5        29.80R WCI  31
$$

...NORTHEAST IOWA...


CITY           SKY/WX    TMP DP  RH WIND       PRES   REMARKS
WATERLOO       CLOUDY    34  29  82 NW8       29.82F WCI  27
DUBUQUE        CLOUDY    37  34  89 NW8       29.79F WCI  31
DECORAH          N/A     34  32  93 VRB7      29.79F WCI  28
MASON CITY     CLOUDY    33  29  85 NW7       29.83F WCI  27
CHARLES CITY   CLOUDY    34  34 100 NW5       29.82F WCI  30
OELWEIN        CLOUDY    34  32  93 W9        29.82F WCI  26
$$

...ELSEWHERE IN IOWA...


CITY           SKY/WX    TMP DP  RH WIND       PRES   REMARKS
DES MOINES     CLOUDY    34  29  82 NW5       29.85F WCI  30
IOWA CITY      CLOUDY    39  32  76 W12       29.84F WCI  32
FORT DODGE     CLOUDY    34  27  75 N5        29.84F WCI  30
MARSHALLTOWN   CLOUDY    32  31  96 NW6       29.83F WCI  26
CEDAR RAPIDS   CLOUDY    34  31  88 W10       29.81F WCI  26
$$

...NORTHERN ILLINOIS...


CITY           SKY/WX    TMP DP  RH WIND       PRES   REMARKS
CHICAGO-OHARE  CLOUDY    41  36  82 N10       29.73F
CHICAGO-MIDWAY CLOUDY    42  34  73 N13G21    29.74S
MOLINE         CLOUDY    41  34  76 W12       29.80F
ROCKFORD       CLOUDY    43  35  73 NW8       29.77F
PEORIA         CLOUDY    42  35  76 NW9       29.79F
$$

NOTE: "FAIR" INDICATES FEW OR NO CLOUDS BELOW 12,000 FEET WITH NO
SIGNIFICANT WEATHER AND/OR OBSTRUCTIONS TO VISIBILITY. WIND
SPEEDS ARE IN MILES-PER-HOUR.




USA.gov is the U.S. government's official web portal to all federal, state and local government web resources and services.